Location: ???????
(55.2903°N, 39.1554°E)
Time: 10:13:54
(UTC+00:00)

Cosmos 1538 Rocket - Pass Details

Date: 14 April 2024
Orbit: 751 x 789 km, 74.0° (Epoch: 27 May)

Event Time Altitude Azimuth Distance (km) Brightness Sun altitude
Exits shadow 00:27:30 19° 199° (SSW) 1,824 5.4 -14.7°
Maximum altitude 00:31:28 79° 114° (ESE) 806 4.1 -14.3°
Drops below altitude 10° 00:36:48 10° 29° (NNE) 2,345 7.7 -13.8°
Sets 00:39:11 0° 29° (NNE) 3,272 8.7 -13.5°
